Overview Statistics Trail Chart Weather Telemetry Raw packets
 

This is the latest recevied weather packets stored in our database for station/object N8TWM-13. If no packets are shown the sender has not sent any weather packets the latest 10 day(s).

<< 1 2 3 4 5 6 >>
Time Temp. Humidity Pressure Rain* Wind** Luminosity Snow
1788607166 20° C 96% 1014.2 hPa 0 mm - 0 W/m² -
1788606860 20° C 96% 1014.3 hPa 0 mm - 0 W/m² -
1788606554 20° C 96% 1014.3 hPa 0 mm - 0 W/m² -
1788606248 20° C 96% 1014.4 hPa 1.27 mm - 0 W/m² -
1788605943 20° C 96% 1014.5 hPa 1.27 mm - 0 W/m² -
1788605642 20° C 96% 1014.6 hPa 0 mm - 0 W/m² -
1788605336 20° C 96% 1014.8 hPa 1.78 mm - 0 W/m² -
1788605033 19.44° C 96% 1014 hPa 1.78 mm - 0 W/m² -
1788604733 19.44° C 96% 1014.3 hPa 0 mm - 0 W/m² -
1788604429 20° C 96% 1014.7 hPa 3.05 mm - 0 W/m² -
1788604124 20° C 96% 1014.2 hPa 4.32 mm - 0 W/m² -
1788603821 20° C 96% 1014.2 hPa 6.6 mm - 0 W/m² -
1788603521 20° C 96% 1014.3 hPa 6.6 mm - 0 W/m² -
1788603219 20° C 96% 1014.3 hPa 7.11 mm - 0 W/m² -
1788602913 20° C 96% 1014.6 hPa 7.11 mm - 0 W/m² -
1788602610 20° C 96% 1015.3 hPa 3.05 mm - 0 W/m² -
1788602308 20° C 96% 1015.4 hPa 1.78 mm - 0 W/m² -
1788602003 20.56° C 96% 1015.7 hPa 4.83 mm - 0 W/m² -
1788601698 20.56° C 96% 1015.7 hPa 3.05 mm - 0 W/m² -
1788601409 20.56° C 96% 1016 hPa 3.05 mm - 0 W/m² -
1788601092 20.56° C 96% 1015.8 hPa 4.83 mm - 0 W/m² -
1788600789 20.56° C 96% 1015.7 hPa 12.7 mm - 0 W/m² -
1788600484 20.56° C 96% 1015.5 hPa 26.92 mm - 0 W/m² -
1788600184 20.56° C 96% 1015.6 hPa 33.53 mm - 0 W/m² -
1788599879 20.56° C 95% 1015.9 hPa 37.85 mm - 0 W/m² -

* Rain latest hour (hover to see other rain measurements)
** Current wind speed in m/s (hover to see current wind gust speed)